RH
9 16 11 6 10 26 43 47 48 31 30 50 32 43 54 37 33 34 26 20 20 20 19 17 17 14 13 21 30 46 54 70 56 43 37 35 34 35 36 34 37 35 22 24
12 14 12 15 19 40 51 68 54 45 49 58 47 55 54 50 46 46 36 32 30 26 28 29 29 32 39 46 56 67 79 75 62 54 48 44 44 37 35 37 36 21 16 18
18 21 16 25 27 25 42 60 48 62 66 65 70 58 55 51 56 48 40 46 52 52 47 44 52 76 82 77 79 97 99 90 81 72 63 49 43 37 37 38 38 12 12 13
40 33 28 38 35 36 54 42 64 70 76 79 78 80 64 58 59 52 42 35 50 64 64 59 83 98 98 100 100 100 98 99 88 72 56 47 41 40 38 39 32 12 12 13
31 31 36 46 38 54 60 64 73 77 82 83 84 79 57 57 57 72 69 72 82 88 89 89 92 100 97 100 99 99 100 92 78 69 62 52 33 41 41 42 32 14 11 9
46 54 55 57 60 70 78 80 80 86 90 93 75 74 57 62 83 98 100 98 91 96 100 100 99 99 99 99 99 100 99 99 100 96 54 36 36 46 48 48 42 13 12 10
45 44 44 52 60 62 71 87 88 95 98 90 78 80 68 84 98 81 78 98 100 100 99 99 99 99 98 98 100 98 99 98 94 92 62 51 37 41 30 23 16 8 8 13
50 55 39 42 48 59 77 87 82 94 92 78 78 81 85 88 99 78 87 91 86 80 80 86 91 93 93 95 96 98 96 96 94 87 69 49 34 27 18 12 12 11 10 12
53 63 58 59 61 71 97 94 83 98 97 95 72 82 75 87 91 88 91 88 93 94 90 90 93 94 95 90 90 96 90 80 55 40 16 19 23 16 12 12 13 10 7 6
54 64 64 65 67 78 86 83 94 98 94 90 72 76 78 69 75 83 86 84 80 88 72 77 73 48 37 62 49 35 76 70 54 33 12 9 8 7 5 4 4 4 4 4
59 69 72 77 76 73 86 97 93 86 90 90 92 76 57 64 71 75 78 71 66 53 52 51 45 41 36 28 24 33 12 23 43 77 52 13 7 6 6 6 8 10 10 13
56 76 78 79 80 78 86 88 95 95 90 95 95 71 60 75 70 67 62 66 59 54 50 54 52 42 37 28 18 14 12 15 20 24 21 16 16 17 17 24 31 34 34 26
68 95 90 93 92 96 87 66 81 91 92 93 91 71 62 76 68 63 51 63 63 61 62 66 59 50 35 23 33 39 33 30 28 34 31 33 46 53 56 64 65 62 57 52
70 71 69 71 62 66 70 68 67 87 98 91 87 70 88 76 76 63 60 60 68 74 75 74 59 49 32 40 49 43 39 44 51 61 68 76 86 86 81 83 82 80 77 74
72 77 74 69 74 74 79 80 75 95 90 99 94 78 68 75 75 69 67 60 74 82 87 76 61 41 51 60 60 61 70 87 95 98 98 93 94 94 94 97 97 94 93 87
89 81 80 78 76 84 86 73 84 82 93 98 98 92 77 79 82 88 74 76 86 87 86 68 56 46 61 66 72 78 87 92 94 97 98 96 96 96 96 95 81 78 75 77
89 100 95 94 78 82 98 52 64 73 68 51 72 80 84 83 78 81 85 93 98 92 81 68 52 63 66 70 76 87 93 95 92 93 94 96 97 97 95 74 66 60 54 52
93 96 98 92 90 95 68 67 62 73 75 70 62 74 79 75 68 71 82 91 100 94 78 57 64 68 73 82 87 91 91 96 99 98 97 95 94 70 44 32 23 19 16 17
95 95 97 94 98 77 63 62 60 70 62 70 80 57 48 48 50 67 73 90 96 84 62 70 73 78 85 89 91 94 94 96 96 96 92 74 28 14 11 10 10 10 11 11
99 99 98 97 94 97 58 54 62 69 75 64 54 52 55 54 58 61 85 92 76 70 74 78 84 92 95 94 94 95 95 80 60 41 15 10 10 11 13 13 13 13 13 13
97 99 98 99 92 76 62 57 64 81 61 50 52 49 51 51 74 96 85 68 80 79 79 83 92 97 97 96 92 75 79 61 16 10 10 13 15 16 16 16 16 15 15 14
84 95 97 98 97 89 59 58 66 58 56 48 51 47 44 51 58 70 82 86 88 85 88 94 97 96 96 94 89 39 18 11 11 14 16 18 18 18 18 17 16 15 14 12
90 73 78 76 68 59 54 55 50 55 64 60 54 49 55 63 72 82 86 93 93 94 96 97 96 90 75 57 20 12 10 14 17 19 20 20 20 18 17 16 14 13 12 11
72 79 80 73 70 67 62 62 55 59 68 65 51 58 68 74 78 81 93 96 96 96 96 96 81 68 40 17 11 13 16 19 21 21 20 19 18 17 15 14 14 14 13 12
67 67 68 72 69 64 57 56 56 51 68 59 55 63 67 72 79 87 92 94 97 97 93 77 66 29 15 12 15 18 21 21 20 20 19 19 18 18 17 16 15 14 12 12
80 73 74 69 61 61 61 70 61 66 66 56 64 66 66 73 83 87 90 95 96 87 76 65 25 14 13 16 18 20 18 18 18 19 20 21 22 22 19 16 14 13 11 9
Wind_Speed
24 29 31 21 19 22 21 20 23 26 22 28 31 33 29 28 23 26 16 20 23 24 26 30 30 28 29 33 35 35 34 34 35 36 35 34 33 34 34 37 40 40 38 37
26 33 23 21 23 23 21 21 24 25 17 28 32 36 28 11 11 12 18 16 19 22 24 26 28 26 24 26 31 33 36 37 37 36 35 34 33 34 35 36 40 40 39 39
26 16 10 14 14 20 23 21 21 21 24 24 32 27 3 13 11 13 17 12 13 19 23 26 26 24 24 26 33 36 37 38 36 34 32 33 34 35 32 37 41 37 38 39
19 22 26 26 25 19 22 18 16 19 20 12 15 11 21 12 12 18 16 17 16 15 18 21 21 25 28 29 34 36 36 40 32 32 30 33 34 33 37 36 34 33 33 35
14 13 11 14 11 12 22 17 17 19 20 21 19 10 13 18 17 16 21 21 19 18 19 23 26 30 28 33 36 36 34 37 16 22 27 32 28 36 34 34 32 34 32 33
25 24 18 16 12 10 12 14 17 18 19 9 18 20 13 15 15 12 17 24 19 19 23 28 29 35 34 31 36 34 33 30 33 25 23 25 26 30 34 39 36 35 32 34
27 30 30 31 29 25 25 18 4 3 2 6 6 9 18 20 19 14 17 17 16 15 20 23 24 26 26 27 32 44 45 42 25 18 22 22 24 31 32 32 33 31 30 29
6 5 7 15 28 26 20 22 10 5 3 3 7 8 9 11 9 9 8 6 6 8 10 14 19 20 18 13 8 11 9 13 19 20 23 23 28 29 31 32 34 33 31 31
7 6 4 7 6 16 13 24 23 15 11 3 8 12 17 16 9 3 2 5 7 5 7 6 10 17 14 16 19 12 10 11 13 19 22 24 27 30 33 35 36 34 34 32
20 13 14 13 16 15 24 9 8 10 3 5 6 10 17 15 14 10 7 5 8 6 9 10 11 14 16 16 15 18 17 18 19 21 23 24 25 30 32 33 32 31 33 34
33 27 15 15 22 24 22 22 15 11 9 4 2 8 14 17 11 10 11 8 7 5 6 8 12 15 19 18 14 17 16 20 24 27 29 30 28 28 29 30 30 30 30 29
27 17 32 35 25 23 25 26 24 14 7 12 5 12 9 13 13 12 11 11 10 9 9 11 14 19 23 24 24 19 21 22 22 22 23 25 24 25 26 26 25 25 25 27
24 14 11 10 18 24 30 31 32 31 30 30 7 8 16 19 18 14 14 15 14 13 14 16 19 22 24 26 24 20 21 22 23 21 21 20 19 20 21 22 22 22 23 23
27 28 23 18 12 8 16 23 23 32 23 20 31 24 17 20 21 18 16 16 17 16 15 18 22 25 25 21 18 18 18 17 17 16 15 14 14 15 14 13 14 16 17 19
29 33 31 32 32 27 28 34 29 29 39 25 21 26 33 29 25 17 17 19 19 18 17 21 23 26 23 17 15 15 15 14 11 10 8 8 8 7 8 11 14 16 18 21
32 31 29 28 27 25 28 31 29 28 33 32 27 30 27 26 21 22 22 21 20 21 21 22 23 23 19 15 12 10 9 8 9 9 9 7 5 4 6 10 12 15 18 20
29 24 22 21 24 21 19 36 31 34 30 26 30 35 36 34 27 25 25 21 21 22 21 21 20 17 15 13 11 8 6 6 7 8 6 5 4 6 10 10 13 13 14 17
37 32 24 15 13 11 17 22 21 26 36 33 25 27 26 27 26 24 23 21 21 20 19 17 15 14 12 8 4 3 4 6 6 5 4 7 12 10 9 12 13 13 15 17
43 26 15 7 12 16 25 19 16 24 30 32 28 28 24 20 23 24 25 19 19 19 15 13 10 8 6 3 1 1 3 4 3 6 11 10 7 9 10 11 12 14 16 17
20 19 23 12 5 6 11 13 20 21 29 24 24 26 24 25 25 23 18 18 18 14 12 9 7 6 5 3 2 3 4 6 7 5 6 8 10 11 12 14 15 17 18 20
26 26 28 21 11 11 15 14 15 15 13 11 20 23 20 19 16 17 18 18 15 12 10 9 7 6 5 5 7 7 7 6 5 7 9 11 12 12 13 15 17 19 21 22
30 21 18 19 11 11 17 15 18 16 15 9 10 11 14 15 17 17 16 15 13 12 11 10 8 8 8 7 6 6 6 4 7 8 10 12 13 13 16 18 19 20 21 22
22 22 21 19 15 15 5 11 15 21 12 10 10 12 13 16 16 16 15 13 13 13 12 12 12 11 9 8 7 6 5 6 7 9 10 11 13 15 16 17 18 20 21 22
26 23 29 19 23 20 18 17 13 14 13 13 13 12 12 12 11 11 14 14 13 14 15 15 13 11 10 8 6 5 5 6 8 9 11 13 15 17 19 21 22 23 23 23
22 20 22 23 22 16 14 19 23 18 15 13 12 11 10 9 11 14 12 13 14 16 16 14 13 12 9 7 5 5 5 6 9 11 13 16 19 22 24 24 26 27 27 27
18 20 19 20 16 19 17 12 16 17 15 12 10 8 10 13 13 12 14 15 15 15 14 14 13 10 8 6 5 4 5 8 10 13 16 20 22 24 25 27 27 29 30 30
Wind_Direction
253 249 257 282 281 274 273 273 280 286 300 295 293 303 317 321 319 322 310 312 302 298 291 286 285 282 275 276 282 280 267 245 243 253 255 260 266 273 279 284 295 292 281 273
246 250 268 268 263 268 270 275 282 293 303 300 304 307 324 324 308 312 325 324 309 303 300 293 289 287 285 279 273 263 251 238 235 238 244 251 256 265 276 284 295 294 283 277
250 251 253 254 271 272 261 267 282 294 307 305 308 312 245 300 276 300 313 318 319 320 313 303 293 283 280 267 259 246 237 232 232 238 245 250 256 263 273 284 290 288 280 276
258 253 258 259 264 261 267 272 279 292 300 295 306 291 299 266 294 306 302 310 308 313 304 296 285 270 266 251 238 236 233 232 228 235 246 255 262 266 272 278 285 283 281 279
243 258 244 248 278 269 267 278 283 284 275 286 284 265 284 281 293 329 322 328 321 298 282 267 268 256 253 229 242 237 234 242 236 233 246 251 254 260 272 280 284 278 278 281
250 252 249 260 259 245 272 282 286 270 268 262 266 224 282 303 324 331 313 317 319 297 261 243 244 255 230 230 238 243 242 242 259 231 240 247 259 265 279 282 279 285 275 278
255 258 262 262 261 258 263 266 286 291 186 232 140 210 255 283 305 326 337 340 312 268 253 251 248 247 250 238 233 247 245 246 232 242 259 260 274 278 280 281 277 277 279 280
247 272 242 254 244 245 252 239 215 246 210 230 206 235 254 271 312 346 8 1 342 345 327 315 312 310 313 284 263 247 263 249 233 250 273 276 274 280 282 281 280 281 281 280
227 245 230 258 255 237 224 220 237 250 268 273 237 250 256 255 253 240 308 10 19 1 4 16 19 8 2 345 331 335 312 301 296 281 283 277 278 283 280 280 282 284 284 283
251 260 256 257 244 228 228 254 194 207 242 232 245 239 231 231 224 220 241 323 314 316 331 332 343 359 7 3 345 343 317 302 297 292 291 291 290 286 285 288 289 290 286 284
248 245 249 249 234 238 222 224 221 230 211 225 248 248 258 240 227 235 244 272 263 301 329 351 347 341 336 336 326 315 305 292 289 286 293 299 297 294 295 295 297 295 289 286
242 243 244 241 246 246 240 245 244 228 228 228 239 265 256 204 227 222 239 234 240 291 302 316 324 326 327 327 321 313 303 304 301 301 299 297 300 302 302 302 301 299 297 291
240 232 249 253 248 249 252 254 246 248 251 235 191 248 229 221 216 244 262 241 252 281 293 307 318 319 322 322 325 321 312 308 304 305 303 302 304 304 307 308 307 305 302 297
252 254 246 249 246 252 254 259 264 255 240 236 221 238 228 236 236 247 267 260 258 271 285 300 309 314 321 321 319 320 320 313 303 300 301 306 318 321 318 324 331 330 325 323
248 253 257 260 263 266 270 272 274 256 252 239 241 252 261 262 266 265 260 258 259 270 283 298 305 312 317 318 317 321 322 324 325 325 325 325 327 346 10 26 32 31 29 29
251 252 258 258 259 262 266 270 265 261 258 246 257 254 258 256 251 260 253 252 259 265 276 288 298 304 309 309 311 313 316 328 330 334 336 330 342 21 40 42 48 46 37 33
255 242 250 255 269 275 266 264 259 255 249 253 250 253 258 265 273 259 248 256 251 260 273 287 293 294 298 303 314 327 337 336 341 334 322 323 2 45 47 30 33 32 39 35
240 253 236 247 269 234 248 254 265 249 251 244 246 255 259 262 263 250 247 248 249 263 278 284 287 288 285 285 287 318 339 345 343 337 12 47 40 32 31 34 26 25 28 26
230 230 231 223 216 259 269 265 266 241 243 247 244 248 241 256 255 242 244 249 254 267 275 274 268 259 247 241 280 348 1 355 4 54 49 35 29 36 32 26 28 26 24 20
218 235 234 202 198 223 270 263 253 244 246 245 245 245 257 255 243 248 245 247 256 258 262 259 237 204 184 154 134 89 65 60 48 51 57 46 34 26 22 18 16 17 13 10
206 215 216 221 229 253 256 257 239 213 253 248 242 244 245 249 242 233 241 245 244 248 244 225 202 179 146 127 111 101 82 60 47 42 38 32 23 15 13 12 9 8 4 2
204 195 205 218 215 258 248 231 221 241 242 250 236 233 238 241 242 241 239 243 241 232 213 194 173 153 141 126 114 99 78 57 45 30 23 15 10 4 5 5 1 358 354 350
213 215 210 213 233 235 234 247 248 241 244 247 254 260 252 246 245 243 240 221 210 200 185 168 157 149 141 134 121 96 70 51 36 23 14 9 5 3 0 356 352 349 347 345
226 225 232 236 243 244 243 240 255 250 241 250 271 265 251 244 234 219 194 188 184 176 165 159 154 145 141 132 112 87 60 40 31 21 11 6 2 358 355 352 351 348 345 346
237 237 234 236 242 243 247 247 248 252 242 259 259 248 232 216 189 170 177 172 169 164 161 157 152 146 135 125 114 90 61 40 20 8 4 1 359 357 353 350 348 346 345 345
233 236 241 250 263 258 251 267 242 237 239 250 231 222 205 186 177 175 169 165 165 165 159 156 153 142 136 135 113 76 30 12 3 358 359 360 357 353 350 347 345 346 345 343